Terminal Aerodrome Forecast
Issued by NWS

Home | Current Version | Previous Version | Graphics & Text | Print | Product List | Glossary On
Versions: 1 2 3 4 5 6 7 8 9 10 11 12 13 14 15 16 17 18 19
506
FTUS43 KABR 171120
TAFATY
TAF
KATY 171120Z 1712/1812 17009KT P6SM OVC200
     FM171600 32005KT P6SM OVC080
     FM171700 35007KT P6SM VCSH OVC070
     FM171900 36010KT P6SM OVC140=

USA.gov is the U.S. government's official web portal to all federal, state and local government web resources and services.